Time,TemperatureF,DewpointF,PressureIn,WindDirection,WindDirectionDegrees,WindSpeedMPH,WindSpeedGustMPH,Humidity,HourlyPrecipIn,Conditions,Clouds,dailyrainin,SoftwareType,DateUTC
2013-04-03 08:30:00,74.3,68.8,30.05,ESE,112,1.0,6.0,83,0.00,,,0.00,VWS V14.01,2013-04-03 12:30:00,
2013-04-03 08:52:00,74.3,68.8,30.05,ESE,112,1.0,6.0,83,0.00,,,0.00,VWS V14.01,2013-04-03 12:52:00,
2013-04-03 08:57:00,76.6,68.5,30.05,SSE,155,3.0,7.0,76,0.00,,,0.00,VWS V14.01,2013-04-03 12:57:00,
2013-04-03 09:02:00,77.1,69.0,30.05,ESE,105,8.0,11.0,76,0.00,,,0.00,VWS V14.01,2013-04-03 13:02:00,
2013-04-03 09:07:00,77.3,68.8,30.05,SE,128,5.0,11.0,75,0.00,,,0.00,VWS V14.01,2013-04-03 13:07:00,
2013-04-03 09:12:00,77.6,68.3,30.05,SE,142,3.0,11.0,73,0.00,,,0.00,VWS V14.01,2013-04-03 13:12:00,
2013-04-03 09:17:00,77.8,68.5,30.05,East,87,2.0,4.0,73,0.00,,,0.00,VWS V14.01,2013-04-03 13:17:00,
2013-04-03 09:22:00,78.1,67.9,30.05,SSW,199,1.0,7.0,71,0.00,,,0.00,VWS V14.01,2013-04-03 13:22:00,
2013-04-03 09:27:00,78.4,68.2,30.05,East,101,8.0,9.0,71,0.00,,,0.00,VWS V14.01,2013-04-03 13:27:00,
2013-04-03 09:32:00,78.5,68.7,30.05,ENE,70,1.0,2.0,72,0.00,,,0.00,VWS V14.01,2013-04-03 13:32:00,
2013-04-03 09:37:00,78.8,68.6,30.05,SE,137,1.0,8.0,71,0.00,,,0.00,VWS V14.01,2013-04-03 13:37:00,
2013-04-03 09:42:00,79.1,68.5,30.06,SSE,158,2.0,10.0,70,0.00,,,0.00,VWS V14.01,2013-04-03 13:42:00,
2013-04-03 09:47:00,79.4,68.3,30.06,ESE,107,0.0,5.0,69,0.00,,,0.00,VWS V14.01,2013-04-03 13:47:00,
2013-04-03 09:52:00,79.6,67.7,30.06,ESE,123,8.0,15.0,67,0.00,,,0.00,VWS V14.01,2013-04-03 13:52:00,
2013-04-03 09:57:00,79.8,67.9,30.06,ESE,105,2.0,15.0,67,0.00,,,0.00,VWS V14.01,2013-04-03 13:57:00,
2013-04-03 10:02:00,79.8,67.9,30.06,ESE,117,2.0,10.0,67,0.00,,,0.00,VWS V14.01,2013-04-03 14:02:00,
2013-04-03 10:07:00,78.8,66.9,30.06,SE,136,4.0,12.0,67,0.00,,,0.00,VWS V14.01,2013-04-03 14:07:00,
2013-04-03 10:12:00,78.8,67.8,30.06,East,90,2.0,12.0,69,0.00,,,0.00,VWS V14.01,2013-04-03 14:12:00,
2013-04-03 10:17:00,79.9,68.4,30.07,East,101,6.0,9.0,68,0.00,,,0.00,VWS V14.01,2013-04-03 14:17:00,
2013-04-03 10:22:00,80.5,68.1,30.07,SE,134,4.0,9.0,66,0.00,,,0.00,VWS V14.01,2013-04-03 14:22:00,
2013-04-03 10:27:00,80.3,67.5,30.07,SE,124,4.0,12.0,65,0.00,,,0.00,VWS V14.01,2013-04-03 14:27:00,
2013-04-03 10:32:00,79.4,67.5,30.07,East,101,6.0,7.0,67,0.00,,,0.00,VWS V14.01,2013-04-03 14:32:00,
2013-04-03 10:37:00,80.0,68.1,30.07,SSW,196,2.0,12.0,67,0.00,,,0.00,VWS V14.01,2013-04-03 14:37:00,
2013-04-03 10:42:00,80.5,68.1,30.07,East,84,8.0,12.0,66,0.00,,,0.00,VWS V14.01,2013-04-03 14:42:00,
2013-04-03 10:47:00,81.0,68.1,30.06,ESE,107,2.0,3.0,65,0.00,,,0.00,VWS V14.01,2013-04-03 14:47:00,
2013-04-03 10:52:00,81.0,67.2,30.06,East,91,9.0,10.0,63,0.00,,,0.00,VWS V14.01,2013-04-03 14:52:00,
2013-04-03 10:57:00,80.7,67.8,30.06,ESE,109,10.0,12.0,65,0.00,,,0.00,VWS V14.01,2013-04-03 14:57:00,
2013-04-03 11:02:00,81.0,67.7,30.06,South,170,5.0,9.0,64,0.00,,,0.00,VWS V14.01,2013-04-03 15:02:00,
2013-04-03 11:07:00,80.7,67.8,30.06,East,97,3.0,11.0,65,0.00,,,0.00,VWS V14.01,2013-04-03 15:07:00,
2013-04-03 11:12:00,80.4,68.0,30.06,ESE,108,4.0,12.0,66,0.00,,,0.00,VWS V14.01,2013-04-03 15:12:00,
2013-04-03 11:17:00,81.4,68.1,30.06,SSE,157,6.0,8.0,64,0.00,,,0.00,VWS V14.01,2013-04-03 15:17:00,
2013-04-03 11:22:00,81.5,67.7,30.05,East,84,7.0,14.0,63,0.00,,,0.00,VWS V14.01,2013-04-03 15:22:00,
2013-04-03 11:27:00,82.3,68.0,30.05,ESE,112,3.0,14.0,62,0.00,,,0.00,VWS V14.01,2013-04-03 15:27:00,
2013-04-03 11:32:00,82.4,66.2,30.04,SE,142,5.0,14.0,58,0.00,,,0.00,VWS V14.01,2013-04-03 15:32:00,
2013-04-03 11:37:00,82.2,66.9,30.05,SE,144,15.0,15.0,60,0.00,,,0.00,VWS V14.01,2013-04-03 15:37:00,
2013-04-03 11:42:00,82.3,66.6,30.04,SE,130,9.0,15.0,59,0.00,,,0.00,VWS V14.01,2013-04-03 15:42:00,
2013-04-03 11:47:00,82.6,67.3,30.04,ESE,113,4.0,8.0,60,0.00,,,0.00,VWS V14.01,2013-04-03 15:47:00,
2013-04-03 11:52:00,83.5,67.7,30.04,ESE,106,5.0,11.0,59,0.00,,,0.00,VWS V14.01,2013-04-03 15:52:00,
2013-04-03 11:57:00,83.2,67.9,30.04,ESE,107,2.0,12.0,60,0.00,,,0.00,VWS V14.01,2013-04-03 15:57:00,
2013-04-03 12:02:00,84.0,68.1,30.04,ENE,68,5.0,7.0,59,0.00,,,0.00,VWS V14.01,2013-04-03 16:02:00,
2013-04-03 12:07:00,84.0,68.1,30.04,SE,131,1.0,12.0,59,0.00,,,0.00,VWS V14.01,2013-04-03 16:07:00,
2013-04-03 12:12:00,84.7,68.3,30.03,SSE,168,0.0,12.0,58,0.00,,,0.00,VWS V14.01,2013-04-03 16:12:00,
2013-04-03 12:17:00,84.1,68.7,30.04,West,260,1.0,5.0,60,0.00,,,0.00,VWS V14.01,2013-04-03 16:17:00,
2013-04-03 12:22:00,84.0,67.7,30.04,ENE,63,3.0,13.0,58,0.00,,,0.00,VWS V14.01,2013-04-03 16:22:00,
2013-04-03 12:28:00,83.4,68.1,30.03,NNW,329,3.0,15.0,60,0.00,,,0.00,VWS V14.01,2013-04-03 16:28:00,
2013-04-03 12:33:00,84.5,68.1,30.03,SSE,160,8.0,10.0,58,0.00,,,0.00,VWS V14.01,2013-04-03 16:33:00,
2013-04-03 12:38:00,84.9,67.5,30.02,SSW,198,5.0,13.0,56,0.00,,,0.00,VWS V14.01,2013-04-03 16:38:00,
2013-04-03 12:43:00,84.7,67.8,30.03,NE,48,3.0,13.0,57,0.00,,,0.00,VWS V14.01,2013-04-03 16:43:00,
2013-04-03 12:48:00,83.6,66.3,30.03,SSE,157,11.0,22.0,56,0.00,,,0.00,VWS V14.01,2013-04-03 16:48:00,
2013-04-03 12:53:00,83.9,67.1,30.02,NNW,344,3.0,22.0,57,0.00,,,0.00,VWS V14.01,2013-04-03 16:53:00,
2013-04-03 12:58:00,84.8,66.8,30.02,SSE,161,4.0,22.0,55,0.00,,,0.00,VWS V14.01,2013-04-03 16:58:00,
2013-04-03 13:03:00,85.0,66.5,30.03,SE,128,4.0,10.0,54,0.00,,,0.00,VWS V14.01,2013-04-03 17:03:00,
2013-04-03 13:08:00,84.7,67.3,30.02,ESE,104,4.0,11.0,56,0.00,,,0.00,VWS V14.01,2013-04-03 17:08:00,
2013-04-03 13:13:00,85.7,66.6,30.02,SSE,150,2.0,11.0,53,0.00,,,0.00,VWS V14.01,2013-04-03 17:13:00,
2013-04-03 13:18:00,84.7,67.3,30.02,ESE,115,2.0,11.0,56,0.00,,,0.00,VWS V14.01,2013-04-03 17:18:00,
2013-04-03 13:23:00,84.8,67.4,30.02,East,81,1.0,11.0,56,0.00,,,0.00,VWS V14.01,2013-04-03 17:23:00,
2013-04-03 13:28:00,85.4,66.9,30.02,SSE,147,2.0,11.0,54,0.00,,,0.00,VWS V14.01,2013-04-03 17:28:00,
2013-04-03 13:33:00,85.2,67.8,30.02,ESE,113,3.0,9.0,56,0.00,,,0.00,VWS V14.01,2013-04-03 17:33:00,
2013-04-03 13:38:00,85.6,67.6,30.02,ESE,112,3.0,13.0,55,0.00,,,0.00,VWS V14.01,2013-04-03 17:38:00,
2013-04-03 13:43:00,85.7,67.7,30.02,SE,137,2.0,13.0,55,0.00,,,0.00,VWS V14.01,2013-04-03 17:43:00,
2013-04-03 13:48:00,85.6,66.5,30.03,SW,230,2.0,6.0,53,0.00,,,0.00,VWS V14.01,2013-04-03 17:48:00,
2013-04-03 13:53:00,86.9,67.7,30.02,SE,128,4.0,9.0,53,0.00,,,0.00,VWS V14.01,2013-04-03 17:53:00,
2013-04-03 13:58:00,86.5,67.9,30.02,SE,137,2.0,13.0,54,0.00,,,0.00,VWS V14.01,2013-04-03 17:58:00,
2013-04-03 14:03:00,86.6,68.0,30.02,East,94,10.0,10.0,54,0.00,,,0.00,VWS V14.01,2013-04-03 18:03:00,
2013-04-03 14:08:00,86.6,67.4,30.02,NNE,27,2.0,12.0,53,0.00,,,0.00,VWS V14.01,2013-04-03 18:08:00,
2013-04-03 14:13:00,87.2,66.9,30.01,ESE,114,2.0,12.0,51,0.00,,,0.00,VWS V14.01,2013-04-03 18:13:00,
2013-04-03 14:18:00,86.1,67.5,30.01,East,80,7.0,8.0,54,0.00,,,0.00,VWS V14.01,2013-04-03 18:18:00,
2013-04-03 14:23:00,86.2,67.1,30.01,South,174,2.0,10.0,53,0.00,,,0.00,VWS V14.01,2013-04-03 18:23:00,
2013-04-03 14:28:00,86.2,67.1,30.00,East,80,8.0,10.0,53,0.00,,,0.00,VWS V14.01,2013-04-03 18:28:00,
2013-04-03 14:33:00,86.1,67.0,30.01,NE,51,1.0,11.0,53,0.00,,,0.00,VWS V14.01,2013-04-03 18:33:00,
2013-04-03 14:38:00,85.6,67.6,30.01,ESE,105,2.0,11.0,55,0.00,,,0.00,VWS V14.01,2013-04-03 18:38:00,
2013-04-03 14:43:00,86.2,67.1,30.00,ESE,109,4.0,12.0,53,0.00,,,0.00,VWS V14.01,2013-04-03 18:43:00,
2013-04-03 14:48:00,86.4,67.3,30.00,SE,128,8.0,8.0,53,0.00,,,0.00,VWS V14.01,2013-04-03 18:48:00,
2013-04-03 14:53:00,85.6,67.6,30.00,East,99,5.0,11.0,55,0.00,,,0.00,VWS V14.01,2013-04-03 18:53:00,
2013-04-03 14:58:00,86.1,67.0,30.01,ENE,63,3.0,15.0,53,0.00,,,0.00,VWS V14.01,2013-04-03 18:58:00,
2013-04-03 15:03:00,86.5,67.9,30.00,SSE,150,2.0,10.0,54,0.00,,,0.00,VWS V14.01,2013-04-03 19:03:00,
2013-04-03 15:08:00,86.3,67.2,30.00,ESE,121,2.0,12.0,53,0.00,,,0.00,VWS V14.01,2013-04-03 19:08:00,
2013-04-03 15:13:00,85.9,67.3,30.01,ENE,76,2.0,12.0,54,0.00,,,0.00,VWS V14.01,2013-04-03 19:13:00,
2013-04-03 15:18:00,85.7,67.7,30.00,ESE,111,5.0,10.0,55,0.00,,,0.00,VWS V14.01,2013-04-03 19:18:00,
2013-04-03 15:24:00,84.3,66.9,30.00,SE,125,1.0,10.0,56,0.00,,,0.00,VWS V14.01,2013-04-03 19:24:00,
2013-04-03 15:29:00,85.9,67.3,30.00,East,83,7.0,13.0,54,0.00,,,0.00,VWS V14.01,2013-04-03 19:29:00,
2013-04-03 15:34:00,85.8,67.2,30.00,ESE,108,5.0,12.0,54,0.00,,,0.00,VWS V14.01,2013-04-03 19:34:00,
2013-04-03 15:39:00,85.8,66.7,29.99,ESE,102,2.0,12.0,53,0.00,,,0.00,VWS V14.01,2013-04-03 19:39:00,
2013-04-03 15:44:00,86.2,67.1,29.99,East,86,3.0,12.0,53,0.00,,,0.00,VWS V14.01,2013-04-03 19:44:00,
2013-04-03 15:49:00,85.3,67.3,29.99,ESE,121,4.0,9.0,55,0.00,,,0.00,VWS V14.01,2013-04-03 19:49:00,
2013-04-03 15:54:00,87.0,67.8,29.99,ESE,121,4.0,9.0,53,0.00,,,0.00,VWS V14.01,2013-04-03 19:54:00,
2013-04-03 15:59:00,86.6,66.3,29.99,SE,126,6.0,9.0,51,0.00,,,0.00,VWS V14.01,2013-04-03 19:59:00,
2013-04-03 16:04:00,86.5,66.2,29.99,NNW,341,4.0,8.0,51,0.00,,,0.00,VWS V14.01,2013-04-03 20:04:00,
2013-04-03 16:09:00,85.7,66.1,30.00,East,89,3.0,12.0,52,0.00,,,0.00,VWS V14.01,2013-04-03 20:09:00,
2013-04-03 16:14:00,86.0,66.3,30.00,SE,142,2.0,12.0,52,0.00,,,0.00,VWS V14.01,2013-04-03 20:14:00,
2013-04-03 16:19:00,84.3,66.9,30.00,ENE,72,2.0,11.0,56,0.00,,,0.00,VWS V14.01,2013-04-03 20:19:00,
2013-04-03 16:24:00,85.4,66.9,29.99,East,98,5.0,11.0,54,0.00,,,0.00,VWS V14.01,2013-04-03 20:24:00,
2013-04-03 16:29:00,84.5,67.6,29.99,East,101,5.0,11.0,57,0.00,,,0.00,VWS V14.01,2013-04-03 20:29:00,
2013-04-03 16:34:00,84.7,67.3,29.99,SSE,163,5.0,8.0,56,0.00,,,0.00,VWS V14.01,2013-04-03 20:34:00,
2013-04-03 16:39:00,86.0,68.0,29.99,ENE,70,2.0,8.0,55,0.00,,,0.00,VWS V14.01,2013-04-03 20:39:00,
2013-04-03 16:44:00,86.1,68.1,29.99,SSE,147,2.0,10.0,55,0.00,,,0.00,VWS V14.01,2013-04-03 20:44:00,
2013-04-03 16:49:00,85.9,67.9,30.00,ESE,118,9.0,9.0,55,0.00,,,0.00,VWS V14.01,2013-04-03 20:49:00,
2013-04-03 16:54:00,85.4,67.4,30.00,SE,132,2.0,10.0,55,0.00,,,0.00,VWS V14.01,2013-04-03 20:54:00,
2013-04-03 16:59:00,86.0,67.4,30.00,SE,128,3.0,10.0,54,0.00,,,0.00,VWS V14.01,2013-04-03 20:59:00,
2013-04-03 17:04:00,85.3,66.8,30.00,SE,133,2.0,8.0,54,0.00,,,0.00,VWS V14.01,2013-04-03 21:04:00,
2013-04-03 17:09:00,83.4,66.6,30.00,SE,138,3.0,10.0,57,0.00,,,0.00,VWS V14.01,2013-04-03 21:09:00,
2013-04-03 17:14:00,82.6,66.8,29.99,East,80,3.0,12.0,59,0.00,,,0.00,VWS V14.01,2013-04-03 21:14:00,
2013-04-03 17:19:00,83.6,67.3,29.99,South,177,4.0,12.0,58,0.00,,,0.00,VWS V14.01,2013-04-03 21:19:00,
2013-04-03 17:24:00,83.3,66.5,29.99,SE,143,2.0,12.0,57,0.00,,,0.00,VWS V14.01,2013-04-03 21:24:00,
2013-04-03 17:29:00,84.3,67.4,29.99,East,80,6.0,12.0,57,0.00,,,0.00,VWS V14.01,2013-04-03 21:29:00,
2013-04-03 17:34:00,84.3,67.4,29.99,SSE,154,3.0,10.0,57,0.00,,,0.00,VWS V14.01,2013-04-03 21:34:00,
2013-04-03 17:39:00,83.5,67.7,30.00,ESE,115,2.0,11.0,59,0.00,,,0.00,VWS V14.01,2013-04-03 21:39:00,
2013-04-03 17:44:00,83.9,67.6,30.00,SE,129,3.0,11.0,58,0.00,,,0.00,VWS V14.01,2013-04-03 21:44:00,
2013-04-03 17:49:00,84.4,67.5,30.00,SE,126,4.0,10.0,57,0.00,,,0.00,VWS V14.01,2013-04-03 21:49:00,
2013-04-03 17:54:00,83.3,67.0,30.00,South,171,2.0,10.0,58,0.00,,,0.00,VWS V14.01,2013-04-03 21:54:00,
2013-04-03 17:59:00,83.1,66.8,30.00,ESE,115,1.0,10.0,58,0.00,,,0.00,VWS V14.01,2013-04-03 21:59:00,
2013-04-03 18:04:00,83.2,66.9,30.01,ESE,107,1.0,7.0,58,0.00,,,0.00,VWS V14.01,2013-04-03 22:04:00,
2013-04-03 18:09:00,83.4,67.1,30.00,East,89,1.0,9.0,58,0.00,,,0.00,VWS V14.01,2013-04-03 22:09:00,
2013-04-03 18:15:00,83.6,65.7,30.01,East,101,6.0,9.0,55,0.00,,,0.00,VWS V14.01,2013-04-03 22:15:00,
2013-04-03 18:20:00,83.4,66.6,30.01,East,88,2.0,6.0,57,0.00,,,0.00,VWS V14.01,2013-04-03 22:20:00,
2013-04-03 18:25:00,83.2,66.9,30.01,SSE,161,3.0,7.0,58,0.00,,,0.00,VWS V14.01,2013-04-03 22:25:00,
2013-04-03 18:30:00,82.6,66.8,30.01,SE,130,0.0,8.0,59,0.00,,,0.00,VWS V14.01,2013-04-03 22:30:00,
2013-04-03 18:35:00,82.0,67.2,30.01,SE,136,0.0,10.0,61,0.00,,,0.00,VWS V14.01,2013-04-03 22:35:00,
2013-04-03 18:40:00,81.9,67.1,30.01,ESE,121,5.0,10.0,61,0.00,,,0.00,VWS V14.01,2013-04-03 22:40:00,
2013-04-03 18:45:00,81.8,67.1,30.01,SE,124,2.0,10.0,61,0.00,,,0.00,VWS V14.01,2013-04-03 22:45:00,
2013-04-03 18:50:00,81.5,67.2,30.01,ENE,76,2.0,8.0,62,0.00,,,0.00,VWS V14.01,2013-04-03 22:50:00,
2013-04-03 18:55:00,81.0,67.2,30.01,ESE,117,1.0,10.0,63,0.00,,,0.00,VWS V14.01,2013-04-03 22:55:00,
2013-04-03 19:00:00,80.6,67.3,30.01,SE,131,1.0,11.0,64,0.00,,,0.00,VWS V14.01,2013-04-03 23:00:00,
2013-04-03 19:05:00,79.9,67.1,30.01,ENE,68,0.0,10.0,65,0.00,,,0.00,VWS V14.01,2013-04-03 23:05:00,
2013-04-03 19:10:00,79.7,67.8,30.01,SE,128,3.0,10.0,67,0.00,,,0.00,VWS V14.01,2013-04-03 23:10:00,
2013-04-03 19:15:00,79.1,67.6,30.00,SE,132,6.0,10.0,68,0.00,,,0.00,VWS V14.01,2013-04-03 23:15:00,
2013-04-03 19:20:00,78.5,67.5,30.00,ESE,115,2.0,8.0,69,0.00,,,0.00,VWS V14.01,2013-04-03 23:20:00,
2013-04-03 19:25:00,78.2,67.6,30.01,ESE,121,3.0,8.0,70,0.00,,,0.00,VWS V14.01,2013-04-03 23:25:00,
2013-04-03 19:30:00,77.9,67.8,30.01,SE,135,4.0,8.0,71,0.00,,,0.00,VWS V14.01,2013-04-03 23:30:00,
2013-04-03 19:35:00,77.6,67.9,30.01,East,87,1.0,7.0,72,0.00,,,0.00,VWS V14.01,2013-04-03 23:35:00,
2013-04-03 19:40:00,77.5,68.2,30.01,ENE,76,2.0,9.0,73,0.00,,,0.00,VWS V14.01,2013-04-03 23:40:00,
2013-04-03 19:45:00,77.3,68.0,30.01,East,84,3.0,9.0,73,0.00,,,0.00,VWS V14.01,2013-04-03 23:45:00,
2013-04-03 19:50:00,77.1,68.2,30.01,ESE,103,2.0,7.0,74,0.00,,,0.00,VWS V14.01,2013-04-03 23:50:00,
2013-04-03 19:55:00,76.9,68.4,30.01,ESE,104,5.0,12.0,75,0.00,,,0.00,VWS V14.01,2013-04-03 23:55:00,
2013-04-03 20:00:00,76.7,68.2,30.02,ESE,103,4.0,12.0,75,0.00,,,0.00,VWS V14.01,2013-04-04 00:00:00,
2013-04-03 20:05:00,76.7,68.6,30.02,ESE,111,2.0,5.0,76,0.00,,,0.00,VWS V14.01,2013-04-04 00:05:00,
2013-04-03 20:10:00,76.6,68.5,30.02,ESE,116,1.0,6.0,76,0.00,,,0.00,VWS V14.01,2013-04-04 00:10:00,
2013-04-03 20:15:00,76.4,68.7,30.02,NE,54,1.0,7.0,77,0.00,,,0.00,VWS V14.01,2013-04-04 00:15:00,
2013-04-03 20:20:00,76.4,68.7,30.02,ESE,111,1.0,5.0,77,0.00,,,0.00,VWS V14.01,2013-04-04 00:20:00,